Lid_Strength_Index
1 1 1 1 1 1 1 1 0 -0 0 0 0 0 0 0 1 1 1 1 1 1
1 1 2 1 0 1 0 0 -0 0 0 0 0 0 0 1 1 1 2 1 1 3
2 1 1 1 1 1 0 0 0 0 0 0 0 0 0 1 1 1 6 6 5 6
3 3 2 2 1 1 1 1 1 1 1 1 1 1 1 1 2 3 6 7 7 7
4 3 3 3 2 1 1 1 1 1 1 1 1 1 1 2 4 5 5 8 8 8
5 4 4 3 2 1 1 1 1 1 1 1 2 3 2 2 4 5 6 8 8 9
5 4 5 3 1 1 1 1 1 1 1 2 3 4 5 5 7 8 9 9 9 10
7 5 4 3 2 1 1 1 1 2 4 4 5 5 6 7 9 10 9 11 11 10
5 2 2 2 2 2 3 4 4 5 6 7 6 9 8 9 10 10 11 11 10 10
4 4 4 4 5 5 6 6 7 8 8 9 10 10 10 10 11 11 11 10 10 11
5 5 6 7 7 7 8 8 9 10 10 10 10 11 12 12 12 13 13 11 12 13
7 7 7 8 9 9 10 10 10 10 11 11 12 12 12 12 12 13 14 14 12 13
8 8 9 9 10 10 10 10 11 11 12 12 14 13 13 12 13 14 14 13 13 13
9 9 10 10 11 11 11 11 12 13 13 13 13 13 13 13 13 13 14 13 14 14